[[{"header":{"parameterUnit":"m.s-1","parameterCategory":1,"la1":30.2991,"la2":30.254,"lo1":-89.0895,"lo2":-89.0444,"dy":0.0017,"dx":0.0017,"nx":28,"ny":28,"refTime":"2025-08-02T21:00:00:Z","depth":0,"parameterNumber":2,"parameterNumberName":"U-component_of_WINDS"},"data":[0,0,0,0,0,0,0,0,0,0,0,0,0,0,0,0,0,0,0,0,0,0,0,0,0,0,0,0,0,0,0,0,0,0,0,0,0,0,0,0,0,0,0,0,0,0,0,0,0,0,0,0,0,0,0,0,0,0,-0.6735,-0.6736,0,-0.6833,-0.6834,-0.6835,-0.6886,-0.6886,-0.6886,-0.6886,-0.6986,-0.6988,-0.6991,0,0,0,0,0,0,0,0,0,0,0,0,0,-0.6592,-0.6594,-0.6735,-0.6736,-0.6737,-0.6833,-0.6834,-0.6835,-0.6886,-0.6886,-0.6886,-0.6886,-0.6985,-0.6988,-0.6991,0,0,0,0,0,0,0,0,0,0,0,0,0,-0.6668,-0.6595,-0.6735,-0.6774,-0.6779,-0.6832,-0.6834,-0.6836,-0.6886,-0.6886,-0.6886,-0.6886,-0.6984,-0.6988,-0.6991,-0.7013,0,0,-0.7003,-0.7005,0,0,0,0,0,0,0,0,-0.6664,-0.6673,-0.6767,-0.6772,-0.6777,-0.6847,-0.682,-0.6895,-0.6886,-0.6845,-0.6886,-0.6886,-0.6939,-0.6947,-0.6965,-0.7018,-0.7022,-0.7004,-0.7006,-0.7008,-0.7009,0,0,0,0,0,0,0,-0.6658,-0.6669,-0.6774,-0.6768,-0.6774,-0.6787,-0.6798,-0.6834,-0.689,-0.6849,-0.6853,-0.6863,-0.6942,-0.6961,-0.6968,-0.7024,-0.7003,-0.7007,-0.7009,-0.7011,-0.7099,-0.7099,0,0,0,0,0,0,-0.6647,-0.6665,-0.6771,-0.6777,-0.6719,-0.6789,-0.6801,-0.6824,-0.689,-0.69,-0.6863,-0.6865,-0.6955,-0.6963,-0.6971,-0.7001,-0.7008,-0.7011,-0.7013,-0.7099,-0.7099,-0.7099,0,0,0,0,0,0,-0.6644,-0.6656,-0.6767,-0.6722,-0.6737,-0.6792,-0.6817,-0.6826,-0.6846,-0.6901,-0.6911,-0.6872,-0.6955,-0.6966,-0.7002,-0.7005,-0.7013,-0.7017,-0.7099,-0.7099,-0.7099,-0.706,0,0,0,0,0,0,-0.6639,-0.6654,-0.6663,-0.6722,-0.6739,-0.6796,-0.6817,-0.6828,-0.6852,-0.6856,-0.6913,-0.6922,-0.6956,-0.6996,-0.7006,-0.7011,-0.702,-0.7099,-0.7099,-0.7099,-0.7062,-0.7059,-0.7057,0,0,0,0,0,-0.6634,-0.6649,-0.6664,-0.6676,-0.6752,-0.6796,-0.6806,-0.6845,-0.6852,-0.6862,-0.6897,-0.692,-0.7003,-0.7,-0.7011,-0.7017,-0.7099,-0.7099,-0.7099,-0.7063,-0.706,-0.7057,0,0,0,0,0,0,-0.659,-0.6657,-0.6674,-0.6709,-0.6746,-0.6805,-0.6818,-0.684,-0.6877,-0.6879,-0.6925,-0.6937,-0.6969,-0.6997,-0.6991,-0.7041,-0.7053,-0.7055,-0.7022,-0.7019,-0.7017,-0.701,-0.7023,0,0,0,0,0,-0.6584,-0.6615,-0.6672,-0.6697,-0.6715,-0.6763,-0.6784,-0.681,-0.6851,-0.6867,-0.6905,-0.6944,-0.6979,-0.7001,-0.7036,-0.7066,-0.7079,-0.7075,-0.7073,-0.7071,-0.7072,-0.7089,-0.7088,-0.7099,-0.7099,-0.7099,0,0,-0.6573,-0.6613,-0.663,-0.6689,-0.6721,-0.6752,-0.6776,-0.6807,-0.683,-0.6872,-0.6908,-0.6938,-0.6984,-0.7017,-0.7033,-0.7041,-0.7072,-0.7071,-0.7068,-0.7071,-0.7089,-0.7088,-0.7087,-0.7099,-0.7099,-0.7099,0,0,-0.6567,-0.6601,-0.6625,-0.6657,-0.6705,-0.6737,-0.6743,-0.6798,-0.6819,-0.6856,-0.6887,-0.6915,-0.6974,-0.7006,-0.7029,-0.7034,-0.7057,-0.7044,-0.7032,-0.7048,-0.7047,-0.7047,-0.7048,-0.7048,-0.7046,-0.7046,-0.7045,0,-0.6547,-0.6594,-0.6635,-0.6664,-0.6689,-0.6728,-0.6752,-0.6781,-0.6838,-0.6854,-0.6862,-0.6936,-0.697,-0.701,-0.7011,-0.7029,-0.7037,-0.7038,-0.7044,-0.7044,-0.7044,-0.7046,-0.7047,-0.7044,-0.7044,-0.7044,-0.7044,0,-0.6567,-0.6599,-0.6612,-0.6666,-0.6693,-0.6719,-0.6763,-0.6785,-0.6809,-0.6839,-0.6877,-0.6918,-0.6962,-0.6974,-0.6997,-0.7017,-0.702,-0.7035,-0.7049,-0.7041,-0.7043,-0.7044,-0.7041,-0.7042,-0.7042,-0.7043,0,0,-0.6537,-0.6612,-0.6617,-0.6641,-0.6697,-0.6723,-0.6751,-0.6793,-0.6811,-0.6849,-0.6873,-0.6921,-0.6935,-0.6962,-0.699,-0.7004,-0.7004,-0.7017,-0.7019,-0.7013,-0.7028,-0.7016,-0.7017,-0.7019,-0.702,-0.702,-0.7024,0,-0.654,-0.6592,-0.6629,-0.6667,-0.6696,-0.6733,-0.6757,-0.6794,-0.6823,-0.6852,-0.6885,-0.6918,-0.6934,-0.695,-0.6966,-0.7001,-0.7008,-0.7001,-0.7042,-0.7043,-0.7029,-0.7018,-0.7006,-0.7008,-0.7026,-0.7026,-0.7026,0,-0.655,-0.6586,-0.6626,-0.6678,-0.6692,-0.6713,-0.6755,-0.6783,-0.6824,-0.6845,-0.6874,-0.6902,-0.6932,-0.6942,-0.6985,-0.6979,-0.6998,-0.7017,-0.7019,-0.7024,-0.7034,-0.7023,-0.701,-0.701,-0.7028,-0.7028,-0.7028,0,-0.6523,-0.6582,-0.6614,-0.6634,-0.6695,-0.6709,-0.6735,-0.6777,-0.68,-0.6836,-0.6852,-0.6891,-0.6912,-0.6942,-0.6979,-0.6983,-0.7018,-0.7031,-0.7035,-0.7034,-0.7041,-0.704,-0.703,-0.7053,-0.7053,-0.7053,-0.7053,0,-0.6522,-0.6546,-0.6603,-0.6623,-0.665,-0.6691,-0.6717,-0.6746,-0.6783,-0.6808,-0.6842,-0.6865,-0.6914,-0.6942,-0.6972,-0.7002,-0.7012,-0.7029,-0.7036,-0.7025,-0.7023,-0.7038,-0.7039,-0.7053,-0.7053,-0.7053,-0.7053,0,-0.6498,-0.6537,-0.6574,-0.6629,-0.6643,-0.666,-0.6707,-0.6727,-0.6757,-0.6789,-0.6799,-0.6847,-0.6883,-0.6923,-0.6972,-0.6992,-0.702,-0.7031,-0.7006,-0.701,-0.7011,-0.701,-0.7011,-0.7013,-0.7034,-0.7034,-0.7034,0,-0.6494,-0.6513,-0.6569,-0.6589,-0.6614,-0.6645,-0.6668,-0.6709,-0.6732,-0.6781,-0.6795,-0.6833,-0.6866,-0.6921,-0.696,-0.6997,-0.7009,-0.7007,-0.7015,-0.7004,-0.7009,-0.7007,-0.7009,-0.7004,-0.7004,-0.7004,-0.7003,0,-0.6484,-0.6502,-0.6535,-0.6574,-0.6601,-0.6633,-0.6668,-0.6681,-0.673,-0.6753,-0.679,-0.6815,-0.6865,-0.6902,-0.6944,-0.6971,-0.6995,-0.7,-0.7003,-0.6992,-0.6977,-0.6985,-0.6999,-0.7,-0.7001,-0.7001,-0.7001,-0.7001,-0.647,-0.6488,-0.653,-0.6565,-0.6594,-0.6625,-0.6646,-0.6679,-0.6711,-0.6754,-0.6777,-0.6813,-0.6853,-0.6912,-0.6938,-0.6967,-0.6975,-0.6979,-0.698,-0.698,-0.6977,-0.6972,-0.6974,-0.6975,-0.6975,-0.6975,-0.6975,0,-0.6461,-0.6489,-0.6521,-0.6567,-0.6594,-0.6614,-0.6653,-0.6674,-0.6705,-0.6741,-0.6772,-0.6814,-0.685,-0.6891,-0.693,-0.6945,-0.6956,-0.6953,-0.6952,-0.6958,-0.6968,-0.6961,-0.6943,-0.6943,-0.6943,-0.6943,-0.6943,-0.6943,-0.6459,-0.6491,-0.6514,-0.656,-0.6588,-0.6624,-0.6644,-0.6672,-0.6701,-0.6746,-0.6776,-0.6802,-0.684,-0.6881,-0.6915,-0.6926,-0.6939,-0.6932,-0.6946,-0.6955,-0.6957,-0.696,-0.6954,-0.6935,-0.6934,-0.6934,-0.6934,-0.6934]},{"header":{"parameterUnit":"m.s-1","parameterCategory":1,"la1":30.2991,"la2":30.254,"lo1":-89.0895,"lo2":-89.0444,"dy":0.0017,"dx":0.0017,"nx":28,"ny":28,"refTime":"2025-08-02T21:00:00:Z","depth":0,"parameterNumber":3,"parameterNumberName":"V-component_of_WINDS"},"data":[0,0,0,0,0,0,0,0,0,0,0,0,0,0,0,0,0,0,0,0,0,0,0,0,0,0,0,0,0,0,0,0,0,0,0,0,0,0,0,0,0,0,0,0,0,0,0,0,0,0,0,0,0,0,0,0,0,0,0.6041,0.6045,0,0.6392,0.6396,0.6399,0.6496,0.6494,0.6492,0.649,0.6855,0.6866,0.6877,0,0,0,0,0,0,0,0,0,0,0,0,0,0.5464,0.5474,0.6041,0.6045,0.605,0.6391,0.6396,0.6401,0.6496,0.6494,0.6492,0.6489,0.6851,0.6864,0.6878,0,0,0,0,0,0,0,0,0,0,0,0,0,0.5754,0.5477,0.604,0.6139,0.6151,0.639,0.6396,0.6402,0.6497,0.6494,0.6491,0.6488,0.6846,0.6863,0.688,0.7048,0,0,0.6933,0.6941,0,0,0,0,0,0,0,0,0.5738,0.5775,0.612,0.6132,0.6147,0.6397,0.6326,0.6619,0.6498,0.6366,0.649,0.6487,0.6705,0.6734,0.6807,0.7065,0.7081,0.6935,0.6945,0.6953,0.6958,0,0,0,0,0,0,0,0.5717,0.5761,0.618,0.6125,0.6141,0.6168,0.6206,0.6382,0.6548,0.6377,0.6385,0.6425,0.6712,0.6789,0.6816,0.7086,0.6934,0.695,0.6961,0.6967,0.7505,0.7508,0,0,0,0,0,0,0.5679,0.5744,0.6169,0.619,0.593,0.6181,0.6223,0.632,0.6547,0.6578,0.6427,0.6428,0.6761,0.6795,0.6829,0.7043,0.6953,0.6969,0.6979,0.7501,0.7505,0.751,0,0,0,0,0,0,0.5667,0.5716,0.6155,0.5969,0.6027,0.6194,0.6302,0.6328,0.6406,0.6584,0.6615,0.6475,0.676,0.6805,0.6994,0.7057,0.6977,0.6993,0.7496,0.7502,0.7508,0.747,0,0,0,0,0,0,0.565,0.5711,0.5775,0.597,0.6037,0.6311,0.6305,0.6337,0.6435,0.6439,0.6638,0.6668,0.6761,0.6967,0.7011,0.7079,0.7006,0.7491,0.7499,0.7506,0.7467,0.7474,0.748,0,0,0,0,0,0.5629,0.5751,0.5777,0.5828,0.6119,0.6314,0.6353,0.6456,0.6439,0.6506,0.6622,0.6661,0.7042,0.6985,0.7036,0.711,0.7488,0.7497,0.7505,0.7464,0.7473,0.748,0,0,0,0,0,0,0.556,0.5778,0.581,0.5998,0.6137,0.633,0.6417,0.6462,0.661,0.6608,0.6732,0.6776,0.6957,0.7053,0.6985,0.7287,0.7266,0.7285,0.7217,0.7228,0.7234,0.7208,0.7021,0,0,0,0,0,0.5566,0.5704,0.5888,0.6037,0.6105,0.6249,0.6338,0.6405,0.6555,0.6615,0.6744,0.6889,0.7042,0.714,0.729,0.7481,0.7527,0.7557,0.7564,0.7569,0.7584,0.7695,0.7712,0.7538,0.7538,0.7538,0,0,0.5582,0.5718,0.5798,0.6027,0.6142,0.6285,0.6297,0.6447,0.6556,0.6638,0.6824,0.6924,0.7095,0.7286,0.7377,0.7371,0.7643,0.758,0.7582,0.7596,0.7706,0.7722,0.7737,0.7544,0.7543,0.7542,0,0,0.5683,0.5798,0.5936,0.6052,0.6226,0.6321,0.6354,0.6542,0.6611,0.68,0.6865,0.6997,0.7257,0.7377,0.7471,0.7621,0.7664,0.7666,0.7703,0.7809,0.7823,0.7836,0.7891,0.791,0.7681,0.7681,0.7681,0,0.5681,0.5896,0.6002,0.615,0.625,0.633,0.6472,0.658,0.6795,0.6864,0.6854,0.7184,0.7304,0.7526,0.7562,0.7636,0.768,0.7645,0.7812,0.7826,0.784,0.7894,0.7914,0.768,0.768,0.768,0.768,0,0.5886,0.6035,0.6126,0.633,0.6441,0.6585,0.6716,0.6815,0.6874,0.6971,0.7164,0.7312,0.7494,0.7552,0.7611,0.7783,0.7775,0.7787,0.7769,0.7854,0.7907,0.7929,0.7679,0.7679,0.768,0.768,0,0,0.5953,0.6215,0.6247,0.6342,0.6541,0.666,0.6809,0.6987,0.7071,0.7217,0.7348,0.7567,0.758,0.7688,0.7761,0.7855,0.7967,0.7857,0.7863,0.7873,0.8169,0.8159,0.8181,0.7996,0.8,0.8004,0.8155,0,0.6081,0.6348,0.6449,0.6669,0.681,0.6889,0.702,0.7158,0.7253,0.7388,0.7495,0.7649,0.7654,0.772,0.7815,0.7932,0.8028,0.7923,0.8121,0.8127,0.8077,0.8208,0.8199,0.8333,0.8176,0.818,0.8182,0,0.6265,0.6412,0.6645,0.683,0.6893,0.7008,0.7181,0.7308,0.7467,0.7531,0.7651,0.772,0.7882,0.7853,0.8081,0.8007,0.8094,0.8164,0.8172,0.8196,0.816,0.8237,0.8379,0.8399,0.8216,0.8213,0.8211,0,0.6293,0.655,0.6723,0.6802,0.7021,0.71,0.7196,0.7352,0.7453,0.7605,0.7672,0.784,0.7933,0.8063,0.8177,0.8145,0.8395,0.8374,0.8454,0.8451,0.8503,0.8499,0.8662,0.8557,0.8557,0.8556,0.8556,0,0.6425,0.6566,0.6739,0.6846,0.7007,0.7123,0.728,0.7381,0.7519,0.765,0.7729,0.785,0.7991,0.8131,0.822,0.8396,0.8437,0.8495,0.8517,0.8489,0.8482,0.8549,0.8543,0.8562,0.8561,0.8559,0.8558,0,0.6483,0.6605,0.68,0.6991,0.7043,0.7153,0.7318,0.7427,0.7526,0.769,0.7735,0.7892,0.8061,0.8187,0.8406,0.8466,0.8655,0.8677,0.86,0.8612,0.8685,0.8677,0.8898,0.8935,0.8802,0.8803,0.8804,0,0.656,0.667,0.6874,0.6966,0.706,0.7207,0.7311,0.7431,0.7536,0.7728,0.7814,0.7988,0.8134,0.8401,0.8536,0.8704,0.8732,0.8799,0.8758,0.8727,0.8736,0.8728,0.8741,0.8804,0.8805,0.8806,0.8806,0,0.6685,0.6741,0.6886,0.7053,0.7174,0.7312,0.7452,0.7523,0.7669,0.7784,0.7957,0.807,0.8294,0.8467,0.8649,0.8751,0.8804,0.8818,0.8846,0.8818,0.877,0.8799,0.8617,0.8812,0.8812,0.8811,0.8811,0.8811,0.6757,0.6859,0.7019,0.7179,0.7297,0.7426,0.7538,0.7651,0.7797,0.7988,0.805,0.823,0.839,0.8641,0.8744,0.8888,0.8887,0.8926,0.8937,0.8945,0.8944,0.8745,0.8921,0.8921,0.8921,0.8921,0.8921,0,0.6888,0.6995,0.7141,0.7333,0.746,0.7498,0.7655,0.7759,0.7916,0.806,0.8202,0.8402,0.8571,0.8719,0.8895,0.8982,0.9012,0.9025,0.902,0.9043,0.8934,0.8893,0.8998,0.8998,0.8998,0.8998,0.8998,0.8998,0.697,0.7146,0.7221,0.7457,0.7564,0.7739,0.7826,0.7947,0.8063,0.8283,0.8423,0.8518,0.8665,0.8853,0.901,0.905,0.9112,0.9119,0.9165,0.906,0.9051,0.9042,0.9004,0.9131,0.9132,0.9263,0.9265,0.9265]}]]